Weather in Verkhny Rogachik

Ukraine / Kherson District     47°14′29″N   34°21′36″E
temp.,
°C
wind,
m/s
gust,
m/s
humid.,
%
clouds,
%
prec.,
mm/h
press.,
hPa
HPBL,
m
17 may, tue
tue1700:00+14w335889 0.0 101725
03:00+14wnw3561100 0.0 1016101
06:00+14nw3472100 0.1 1016101
09:00+14n2379100 0.4 1016350
12:00+18nnw454997 0.4 10161542
15:00+19nnw354384 0.4 10141557
18:00+19nnw35449 0.0 1013608
21:00+14sse3358100 0.0 101333
18 may, wed
wed1800:00+14ssw4670100 0.0 1011120
03:00+14sw4773100 0.1 1010230
06:00+12n6972100 1.0 1010530
09:00+10nne5980100 2.0 1011940
12:00+13nne5763100 0.5 10121399
15:00+15nnw7739100 0.6 10122486
18:00+13nnw896133 0.7 10131419
21:00+10nnw81277100 2.2 1016561
19 may, thu
thu1900:00+9nnw6108846 0.6 1017402
03:00+10nnw81289100 2.1 1018707
06:00+10nnw8128598 1.2 1020640
09:00+13nnw810745 1.2 1022822
12:00+16nnw895515 0.4 10221608
15:00+16nnw685454 0.6 10231606
18:00+16nnw5854100 0.0 1023606
21:00+15nw375560 0.0 1024131
20 may, fri
fri2000:00+12wnw34705 0.0 102547
03:00+11w45775 0.0 102565
06:00+11wnw35805 0.0 1025105
09:00+16wnw56599 0.0 1025574
12:00+20wnw564330 0.0 10251699
15:00+22wnw5639100 0.0 10231989
18:00+21w3548100 0.0 1022415
21:00+16wsw5964100 0.0 1021188
21 may, sat
sat2100:00+14sw6126797 0.0 1020306
03:00+13sw6147293 0.0 1018344
06:00+13sw71476100 0.0 1017396
09:00+18sw9136024 0.0 1016686
12:00+22wsw1012487 0.0 10141224
15:00+23sw10124499 0.0 10121346
18:00+20sw913545 0.0 1011911
21:00+15sw815645 0.0 1011464